• en France
  • Liste des pays
  • À 7 jours
  • Température de l'eau
  • Carte satellitaire
  • Carte météo
  • Widgets météo
  • user-avatar
    Se connecter

    Météo par heure à Sidi-bel-Abbès

    Ce jour, 15 Novembre, Jeudi

    Heure Température Précipitation Vent Pression Humidité
    00:00 +17°C° 0 mm 2 m/s 718 mmHg 66%
    01:00 +17°C° 0 mm 2 m/s 718 mmHg 66%
    02:00 +16°C° 0 mm 2 m/s 718 mmHg 67%
    03:00 +16°C° 0 mm 2 m/s 718 mmHg 68%
    04:00 +16°C° 0 mm 2 m/s 718 mmHg 69%
    05:00 +15°C° 0 mm 1 m/s 718 mmHg 71%
    06:00 +15°C° 0 mm 1 m/s 718 mmHg 73%
    07:00 +16°C° 0 mm 1 m/s 718 mmHg 67%
    08:00 +18°C° 0 mm 1 m/s 718 mmHg 62%
    09:00 +19°C° 0 mm 1 m/s 719 mmHg 57%
    10:00 +20°C° 0 mm 1 m/s 719 mmHg 54%
    11:00 +20°C° 0 mm 2 m/s 719 mmHg 51%
    12:00 +20°C° 0 mm 2 m/s 719 mmHg 47%
    13:00 +20°C° 0 mm 2 m/s 719 mmHg 48%
    14:00 +20°C° 0 mm 3 m/s 719 mmHg 49%
    15:00 +20°C° 0 mm 3 m/s 719 mmHg 49%
    16:00 +19°C° 0 mm 2 m/s 719 mmHg 55%
    17:00 +19°C° 0 mm 2 m/s 719 mmHg 60%
    18:00 +19°C° 0 mm 1 m/s 719 mmHg 66%
    19:00 +18°C° 0 mm 1 m/s 719 mmHg 68%
    20:00 +18°C° 0 mm 1 m/s 719 mmHg 71%
    21:00 +15°C° 0 mm 0 m/s 720 mmHg 74%
    22:00 +15°C° 0 mm 0 m/s 720 mmHg 75%
    23:00 +15°C° 0 mm 0 m/s 720 mmHg 76%

    Demain, 16 Novembre, Vendredi

    Heure Température Précipitation Vent Pression Humidité
    00:00 +14°C° 0 mm 0 m/s 720 mmHg 76%
    01:00 +15°C° 0 mm 1 m/s 720 mmHg 77%
    02:00 +15°C° 0 mm 1 m/s 719 mmHg 77%
    03:00 +15°C° 0 mm 1 m/s 719 mmHg 78%
    04:00 +15°C° 0 mm 1 m/s 719 mmHg 78%
    05:00 +14°C° 0 mm 1 m/s 719 mmHg 78%
    06:00 +14°C° 0 mm 1 m/s 719 mmHg 77%
    07:00 +16°C° 0 mm 1 m/s 719 mmHg 71%
    08:00 +17°C° 0 mm 2 m/s 720 mmHg 65%
    09:00 +18°C° 0 mm 2 m/s 720 mmHg 59%
    10:00 +19°C° 0 mm 2 m/s 720 mmHg 54%
    11:00 +20°C° 0 mm 2 m/s 720 mmHg 49%
    12:00 +21°C° 0 mm 2 m/s 719 mmHg 45%
    13:00 +21°C° 0 mm 2 m/s 719 mmHg 44%
    14:00 +21°C° 0 mm 3 m/s 719 mmHg 42%
    15:00 +21°C° 0 mm 3 m/s 718 mmHg 41%
    16:00 +21°C° 0 mm 3 m/s 718 mmHg 46%
    17:00 +20°C° 0 mm 3 m/s 718 mmHg 50%
    18:00 +19°C° 0 mm 3 m/s 718 mmHg 55%
    19:00 +18°C° 0 mm 3 m/s 718 mmHg 57%
    20:00 +18°C° 0 mm 2 m/s 718 mmHg 60%
    21:00 +18°C° 0 mm 2 m/s 719 mmHg 62%
    22:00 +17°C° 0 mm 2 m/s 718 mmHg 64%
    23:00 +18°C° 0 mm 1 m/s 718 mmHg 66%

    Après-demain, 17 Novembre, Samedi

    Heure Température Précipitation Vent Pression Humidité
    00:00 +16°C° 0 mm 1 m/s 718 mmHg 67%
    01:00 +16°C° 0 mm 1 m/s 718 mmHg 69%
    02:00 +16°C° 0 mm 1 m/s 718 mmHg 71%
    03:00 +15°C° 0 mm 1 m/s 717 mmHg 73%
    04:00 +15°C° 0 mm 1 m/s 717 mmHg 75%
    05:00 +14°C° 0 mm 1 m/s 717 mmHg 77%
    06:00 +14°C° 0 mm 1 m/s 717 mmHg 79%
    07:00 +15°C° 0 mm 1 m/s 717 mmHg 74%
    08:00 +16°C° 0 mm 1 m/s 718 mmHg 69%
    09:00 +18°C° 0 mm 1 m/s 718 mmHg 65%
    10:00 +19°C° 0 mm 1 m/s 718 mmHg 61%
    11:00 +19°C° 0 mm 2 m/s 718 mmHg 58%
    12:00 +19°C° 0 mm 2 m/s 718 mmHg 54%
    13:00 +19°C° 0 mm 2 m/s 717 mmHg 55%
    14:00 +19°C° 0 mm 3 m/s 717 mmHg 55%
    15:00 +19°C° 0 mm 3 m/s 717 mmHg 55%
    16:00 +19°C° 0 mm 3 m/s 716 mmHg 60%
    17:00 +18°C° 0 mm 2 m/s 716 mmHg 66%
    18:00 +17°C° 0 mm 2 m/s 716 mmHg 71%
    19:00 +17°C° 0 mm 2 m/s 716 mmHg 72%
    20:00 +16°C° 0 mm 2 m/s 716 mmHg 74%
    21:00 +16°C° 0 mm 1 m/s 716 mmHg 75%
    22:00 +16°C° 0 mm 2 m/s 715 mmHg 74%
    23:00 +16°C° 0 mm 2 m/s 715 mmHg 73%

    18 Novembre, Dimanche

    Heure Température Précipitation Vent Pression Humidité
    00:00 +16°C° 0 mm 2 m/s 714 mmHg 72%
    01:00 +16°C° 0 mm 2 m/s 714 mmHg 69%
    02:00 +16°C° 0 mm 2 m/s 714 mmHg 67%
    03:00 +16°C° 0 mm 3 m/s 713 mmHg 64%
    04:00 +16°C° 0 mm 3 m/s 713 mmHg 62%
    05:00 +16°C° 0 mm 3 m/s 713 mmHg 60%
    06:00 +16°C° 0 mm 3 m/s 712 mmHg 58%
    07:00 +17°C° 0 mm 3 m/s 713 mmHg 53%
    08:00 +18°C° 0 mm 3 m/s 713 mmHg 48%
    09:00 +19°C° 0 mm 3 m/s 713 mmHg 43%
    10:00 +19°C° 0 mm 4 m/s 713 mmHg 42%
    11:00 +20°C° 0 mm 4 m/s 713 mmHg 40%
    12:00 +21°C° 0 mm 5 m/s 713 mmHg 38%
    13:00 +20°C° 0.2 mm 4 m/s 713 mmHg 43%
    14:00 +19°C° 0.2 mm 3 m/s 712 mmHg 47%
    15:00 +18°C° 0.2 mm 3 m/s 712 mmHg 52%
    16:00 +18°C° 0.1 mm 2 m/s 712 mmHg 53%
    17:00 +17°C° 0.1 mm 2 m/s 712 mmHg 54%
    18:00 +18°C° 0.1 mm 1 m/s 712 mmHg 55%
    19:00 +18°C° 0 mm 1 m/s 712 mmHg 55%
    20:00 +18°C° 0 mm 1 m/s 712 mmHg 55%
    21:00 +18°C° 0 mm 1 m/s 712 mmHg 55%
    22:00 +18°C° 0 mm 1 m/s 712 mmHg 55%
    23:00 +16°C° 0 mm 1 m/s 711 mmHg 56%

    19 Novembre, Lundi

    Heure Température Précipitation Vent Pression Humidité
    00:00 +16°C° 0 mm 1 m/s 711 mmHg 56%
    01:00 +16°C° 0.1 mm 2 m/s 711 mmHg 58%
    02:00 +14°C° 0.1 mm 3 m/s 710 mmHg 61%
    03:00 +14°C° 0.1 mm 4 m/s 710 mmHg 63%
    04:00 +13°C° 1.3 mm 3 m/s 710 mmHg 68%
    05:00 +13°C° 1.3 mm 3 m/s 710 mmHg 73%
    06:00 +13°C° 1.3 mm 2 m/s 710 mmHg 78%
    07:00 +13°C° 0.8 mm 3 m/s 710 mmHg 75%
    08:00 +13°C° 0.8 mm 4 m/s 711 mmHg 72%
    09:00 +13°C° 0.8 mm 5 m/s 711 mmHg 69%
    10:00 +14°C° 0 mm 6 m/s 711 mmHg 63%
    11:00 +14°C° 0 mm 7 m/s 711 mmHg 57%
    12:00 +15°C° 0 mm 7 m/s 711 mmHg 51%
    13:00 +15°C° 0 mm 7 m/s 711 mmHg 50%
    14:00 +16°C° 0 mm 8 m/s 711 mmHg 49%
    15:00 +16°C° 0 mm 8 m/s 710 mmHg 48%
    16:00 +15°C° 0 mm 7 m/s 711 mmHg 54%
    17:00 +14°C° 0 mm 6 m/s 711 mmHg 59%
    18:00 +13°C° 0 mm 5 m/s 711 mmHg 65%
    19:00 +13°C° 0.1 mm 4 m/s 711 mmHg 67%
    20:00 +12°C° 0.1 mm 4 m/s 712 mmHg 68%
    21:00 +12°C° 0.1 mm 4 m/s 712 mmHg 69%
    22:00 +12°C° 0 mm 4 m/s 712 mmHg 68%
    23:00 +12°C° 0 mm 4 m/s 712 mmHg 66%

    20 Novembre, Mardi

    Heure Température Précipitation Vent Pression Humidité
    00:00 +12°C° 0 mm 4 m/s 712 mmHg 64%
    01:00 +12°C° 0 mm 5 m/s 712 mmHg 65%
    02:00 +12°C° 0 mm 5 m/s 712 mmHg 65%
    03:00 +10°C° 0 mm 6 m/s 712 mmHg 65%
    04:00 +10°C° 0 mm 6 m/s 712 mmHg 66%
    05:00 +10°C° 0 mm 6 m/s 712 mmHg 67%
    06:00 +10°C° 0 mm 5 m/s 712 mmHg 68%
    07:00 +12°C° 0 mm 7 m/s 712 mmHg 65%
    08:00 +13°C° 0 mm 8 m/s 713 mmHg 62%
    09:00 +15°C° 0 mm 9 m/s 713 mmHg 58%
    10:00 +16°C° 0.1 mm 9 m/s 713 mmHg 57%
    11:00 +17°C° 0.1 mm 10 m/s 713 mmHg 55%
    12:00 +17°C° 0.1 mm 11 m/s 714 mmHg 53%
    13:00 +17°C° 0.1 mm 11 m/s 714 mmHg 54%
    14:00 +17°C° 0.1 mm 11 m/s 713 mmHg 55%
    15:00 +17°C° 0.1 mm 11 m/s 713 mmHg 55%
    16:00 +16°C° 0.1 mm 11 m/s 714 mmHg 61%
    17:00 +14°C° 0.1 mm 10 m/s 714 mmHg 67%
    18:00 +13°C° 0.1 mm 9 m/s 714 mmHg 72%
    19:00 +13°C° 0.1 mm 9 m/s 715 mmHg 73%
    20:00 +12°C° 0.1 mm 9 m/s 715 mmHg 73%
    21:00 +12°C° 0.1 mm 8 m/s 716 mmHg 73%
    22:00 +12°C° 0 mm 8 m/s 716 mmHg 74%
    23:00 +12°C° 0 mm 8 m/s 716 mmHg 74%
    Voir plus